RH
30 29 28 27 26 25 24 24 24 24 24 24 24 24 23 23 23 23 22 21 20 18 18 17 15 14 12 12 11 11 12 13 14 17 19 17 17 18 18 19 19 18 18 18 19 21 23 24 22 18 14 10 8 8 7 7 7 7 7 6 6 5 4 4 8 14 16 18 27 32 25 24 21 13 11 17 26 31 28 17 5 3 5 4 4 4 5 7
30 30 29 28 27 26 25 24 24 24 25 25 24 24 23 23 23 23 23 22 21 20 19 18 17 16 14 13 12 11 11 12 13 15 18 18 17 18 18 19 20 19 19 18 18 20 22 24 24 21 17 14 10 7 7 7 7 7 7 7 7 7 6 6 8 11 16 16 19 22 18 13 11 11 12 13 14 16 15 7 2 3 4 4 3 4 6 8
27 29 30 29 28 27 26 25 24 24 24 24 24 25 24 23 23 22 23 23 23 22 21 20 18 17 15 14 13 11 11 11 12 13 15 19 18 17 18 19 20 20 20 19 18 18 20 24 25 25 21 17 13 9 8 7 7 7 7 7 7 8 7 8 10 12 16 15 14 20 26 20 15 17 18 15 12 14 16 7 4 6 6 6 5 5 6 6
22 26 28 29 28 27 27 25 24 24 24 24 23 24 24 24 23 23 23 23 23 23 22 21 20 19 17 15 14 12 12 11 11 12 13 16 19 18 17 19 20 20 21 20 19 18 19 22 25 26 25 21 16 12 9 7 8 7 7 7 7 8 8 9 11 12 15 15 14 16 25 29 26 24 21 17 10 9 13 8 7 8 8 8 5 5 4 4
20 22 25 28 29 28 27 26 25 25 24 24 23 23 23 23 23 23 23 23 22 23 22 22 21 20 19 17 16 14 12 11 10 11 12 13 17 19 18 18 20 20 21 21 20 19 19 20 23 26 27 24 20 15 11 9 8 8 7 7 7 8 8 8 10 12 14 14 15 14 18 24 29 31 29 26 18 12 10 8 7 7 8 9 7 7 6 8
21 19 21 24 27 28 27 26 25 25 25 24 24 23 23 23 23 23 22 22 22 22 22 22 22 21 21 19 17 15 13 12 11 11 12 12 14 18 20 18 19 21 21 22 21 20 19 19 21 25 28 26 23 18 14 10 8 8 8 7 8 8 8 9 9 11 15 14 12 13 13 13 18 25 28 28 23 18 15 13 11 8 7 7 6 7 7 11
24 21 20 20 23 26 27 27 25 24 25 25 24 24 23 22 22 22 22 22 22 22 22 22 22 21 21 20 19 17 14 13 12 11 11 12 12 15 20 20 19 20 21 22 22 21 20 20 20 22 27 28 25 21 17 13 9 8 8 8 8 8 9 9 10 11 14 15 14 12 11 9 11 14 16 16 14 13 14 14 13 11 10 8 6 7 8 11
22 24 22 20 20 21 23 26 26 24 24 24 24 24 24 23 22 22 22 22 22 22 22 22 22 22 22 21 20 18 16 14 13 12 11 12 13 13 17 21 20 19 21 22 23 23 21 20 20 21 25 28 28 24 18 14 11 8 8 9 8 8 9 9 11 10 11 13 14 14 12 10 9 9 10 8 7 9 10 13 14 13 13 11 10 10 11 13
16 21 24 23 21 20 20 22 24 25 24 24 24 24 24 23 23 22 22 22 22 22 22 22 22 22 22 21 21 20 18 16 15 13 12 11 12 12 14 20 22 20 19 22 23 23 22 21 20 20 23 28 30 26 20 16 13 10 8 8 8 8 8 9 9 10 11 11 13 14 15 14 12 10 9 6 5 7 8 11 14 15 16 14 12 11 11 11
15 16 20 24 24 22 20 19 20 22 24 24 23 24 24 23 23 22 22 22 22 22 22 22 22 22 22 22 21 21 19 18 16 15 13 12 12 13 13 16 22 22 19 21 24 24 23 22 21 20 21 26 30 28 23 19 15 12 9 8 9 8 8 9 9 10 9 9 12 12 13 14 13 15 13 10 9 9 10 11 13 14 15 14 13 11 11 10
17 15 15 20 24 25 23 21 19 19 21 22 23 23 23 23 23 22 22 22 22 22 22 22 23 22 23 23 22 21 20 19 18 16 15 13 12 12 13 14 18 23 22 20 23 24 23 23 22 21 21 24 28 29 26 21 18 15 10 8 8 9 8 8 8 9 9 13 14 14 20 18 12 15 15 12 13 13 13 13 14 15 14 14 13 12 11 11
18 18 16 16 18 23 25 24 22 20 19 19 20 22 23 23 23 23 22 22 22 22 22 23 22 23 23 23 22 22 21 20 19 18 16 15 13 12 13 14 15 21 24 21 22 25 24 23 23 22 21 22 25 29 27 22 20 17 12 9 8 8 8 8 8 9 12 14 12 16 28 23 11 14 14 14 16 16 17 16 17 16 16 15 14 14 13 12
19 18 18 17 16 17 21 24 25 23 21 19 18 19 20 22 23 23 22 22 22 22 22 22 22 23 23 23 23 23 22 21 20 19 18 16 15 13 13 14 14 18 24 22 21 24 25 24 24 23 21 21 23 27 28 24 21 18 15 10 8 8 8 9 8 9 10 11 18 25 24 15 11 14 14 16 18 18 18 18 19 18 17 16 14 14 12 11
24 21 19 19 18 16 16 19 23 25 25 22 19 18 18 19 21 22 22 22 22 22 22 22 22 23 23 23 23 23 23 22 21 20 19 18 16 15 13 13 14 15 22 25 22 23 26 25 24 24 22 22 22 25 27 26 23 19 15 12 10 8 8 9 9 10 9 11 26 29 16 10 13 14 15 18 18 19 20 19 19 18 16 15 13 13 12 10
25 25 22 20 19 19 16 15 18 22 25 26 23 21 18 17 18 20 20 21 22 22 22 22 22 22 22 23 23 23 23 23 22 21 20 19 17 16 13 13 14 14 19 25 24 23 26 26 26 25 24 22 22 24 26 27 26 22 17 14 12 10 8 9 9 10 10 11 17 16 11 14 14 13 15 17 17 17 17 17 17 15 14 13 12 12 13 12
23 25 25 23 20 19 19 17 15 17 21 25 26 24 22 18 17 17 18 19 21 22 22 22 21 22 22 22 23 23 23 23 23 22 21 20 18 17 15 13 14 14 16 23 26 24 25 27 27 27 25 24 22 22 25 26 27 26 21 16 13 12 10 9 9 9 11 11 11 10 11 14 13 13 15 14 14 15 14 14 14 13 13 12 13 14 15 15
21 23 25 25 24 21 19 19 18 16 16 20 25 26 25 23 19 17 16 17 18 20 21 21 21 21 22 22 22 22 23 23 23 23 22 21 20 18 16 14 14 14 14 20 27 26 25 26 27 28 27 25 23 22 23 25 27 28 25 19 13 12 12 10 10 9 10 11 11 12 11 12 12 11 12 11 12 12 13 14 13 14 14 14 16 16 17 17
19 21 23 24 26 24 21 20 20 19 16 16 19 23 26 26 24 20 18 16 17 18 19 20 21 21 21 22 22 22 22 22 23 23 23 22 21 19 17 15 14 14 14 17 25 28 26 26 27 29 29 27 25 23 23 24 26 27 27 24 16 12 12 12 11 10 10 10 10 12 12 12 13 12 11 12 12 13 13 14 15 15 15 16 17 17 18 18
18 19 21 23 24 25 24 22 21 20 19 17 15 18 23 26 27 25 22 19 16 16 17 19 20 21 21 21 21 22 21 22 22 23 23 22 22 20 18 16 14 14 14 15 21 28 28 26 26 29 31 29 27 25 24 24 24 26 27 26 21 15 12 12 12 11 11 11 10 11 12 12 13 14 13 13 13 14 14 15 16 16 16 17 17 17 17 17
18 18 19 21 22 24 24 24 24 22 20 20 18 15 17 22 27 28 26 23 19 17 16 17 19 20 20 20 21 21 21 21 21 22 23 23 22 21 19 17 15 14 14 15 19 26 29 27 26 28 31 31 29 27 26 25 24 25 26 27 25 19 14 12 12 11 11 12 11 10 10 10 11 12 12 13 13 13 14 15 14 14 15 16 17 17 17 17
18 18 18 18 19 21 22 24 26 26 23 21 20 18 16 17 23 28 29 27 24 20 17 16 17 18 19 19 20 20 21 21 20 21 22 23 22 22 20 18 15 14 14 14 16 22 28 29 27 27 30 32 31 29 27 26 25 25 25 26 27 24 18 12 11 11 11 11 12 11 11 10 10 10 9 10 11 11 12 13 12 12 13 13 15 15 16 17
15 17 18 18 18 19 20 21 24 27 26 23 22 20 18 17 19 23 27 29 28 25 21 18 16 16 17 17 18 19 20 21 20 20 21 22 22 22 21 19 16 15 14 14 15 19 26 30 28 27 29 32 33 32 29 27 27 26 26 25 26 27 24 18 13 11 12 12 12 12 12 11 10 10 10 9 9 10 10 11 11 10 10 11 12 13 14 15
11 13 15 17 18 18 18 19 21 24 26 26 25 22 21 19 18 19 24 29 30 28 25 22 18 16 16 16 16 17 18 19 19 19 20 21 22 22 22 20 17 15 15 15 14 17 23 29 30 28 29 31 33 34 32 29 28 27 27 27 26 26 27 25 20 14 13 14 13 11 11 11 11 10 10 10 10 10 10 10 11 10 10 11 11 12 12 13
9 10 11 13 16 18 18 18 18 20 22 25 27 25 23 22 20 19 21 25 29 30 28 26 22 18 16 15 15 15 16 17 18 18 19 20 22 22 22 21 18 16 15 15 14 15 20 26 30 30 29 30 32 34 33 32 31 29 28 28 27 26 26 26 26 22 18 15 12 11 10 11 13 11 10 11 10 10 11 11 11 12 11 11 12 12 12 12
9 9 9 10 12 14 17 18 18 18 20 22 25 27 26 24 23 21 20 22 26 29 30 28 26 22 19 17 15 15 14 15 17 17 17 19 21 22 22 21 19 17 15 15 15 15 18 24 28 31 31 31 31 33 34 33 33 32 31 30 30 29 27 26 26 27 25 21 15 12 10 11 12 10 10 11 11 11 11 12 12 13 12 12 13 12 13 13
8 8 8 8 9 10 13 16 17 18 18 19 21 24 27 27 25 23 21 21 23 27 30 30 28 26 22 19 17 16 15 15 16 16 16 17 20 21 22 21 20 18 16 15 15 15 17 21 25 30 33 33 31 31 33 33 33 34 34 33 32 32 30 28 27 26 27 26 23 18 13 10 10 10 11 11 11 11 11 12 13 14 14 14 13 13 13 13
8 8 8 8 8 8 9 12 15 18 18 18 19 21 25 28 28 26 23 21 21 24 28 29 29 29 26 22 19 17 16 15 15 15 16 16 18 20 21 21 20 18 16 15 15 15 16 19 22 27 31 34 34 31 31 33 33 34 35 34 34 34 34 32 30 28 27 27 27 26 21 15 11 10 11 11 12 12 12 12 13 13 14 14 14 14 13 14
8 8 8 8 8 8 8 9 11 15 17 18 18 19 21 25 28 29 25 22 20 21 25 27 29 30 28 25 22 19 17 16 15 15 16 16 17 20 20 21 21 19 17 15 15 15 16 17 19 24 29 34 36 34 32 31 33 34 35 35 34 35 35 35 34 32 29 28 27 28 28 24 20 14 12 11 12 13 13 13 13 14 14 14 15 15 14 14
8 8 8 8 8 8 8 8 8 10 14 17 18 18 19 21 25 29 28 24 22 21 22 24 27 29 30 29 26 22 19 16 16 16 16 16 16 18 19 20 21 19 17 16 16 15 16 16 17 20 26 32 37 38 36 33 32 33 35 36 35 35 36 36 36 35 33 31 28 28 29 28 28 25 20 16 13 13 13 13 14 14 14 15 15 15 15 14
9 8 8 7 8 8 8 8 8 8 10 14 17 18 19 19 21 26 28 27 24 22 20 21 25 28 30 31 29 27 22 18 17 16 16 16 16 17 18 19 20 19 18 16 16 16 16 16 16 18 22 28 34 38 39 37 34 33 34 35 36 35 36 36 37 37 35 34 32 30 29 28 28 30 29 25 20 16 13 13 14 15 15 15 14 15 15 14
9 9 9 8 7 7 7 7 7 8 8 10 14 17 19 19 19 21 26 28 27 24 21 21 23 26 29 31 31 30 26 20 17 16 16 16 16 16 17 18 19 19 18 16 16 16 16 16 16 17 19 23 29 35 39 40 38 36 35 34 35 35 36 37 37 37 37 36 35 32 30 29 28 29 30 30 29 25 20 15 13 15 15 15 14 14 15 15
10 9 9 8 8 7 7 7 7 8 7 8 10 14 17 19 19 19 23 28 30 26 23 21 22 24 27 28 29 31 30 25 19 17 16 16 16 16 16 17 18 19 19 17 16 16 16 16 16 17 17 19 24 29 35 39 40 40 39 38 37 36 36 36 36 37 37 37 37 35 33 31 28 29 30 31 32 31 29 24 18 15 15 14 14 15 15 15
10 9 9 9 8 7 7 7 7 7 7 8 8 10 14 17 19 19 22 26 28 27 25 23 22 22 23 25 27 30 32 29 23 19 17 16 16 16 15 16 18 20 19 18 16 16 16 16 16 16 17 18 20 24 29 35 38 40 42 42 41 40 38 37 36 36 36 37 38 37 36 34 30 29 30 31 31 32 32 32 28 22 18 15 14 15 15 15
10 9 9 9 8 8 7 7 7 7 7 7 7 8 10 14 18 20 21 22 25 28 28 26 24 22 22 22 24 28 31 32 28 22 18 16 16 16 16 16 17 19 19 18 17 16 16 16 16 16 17 17 18 20 23 27 32 36 39 41 43 44 43 40 38 37 36 37 37 38 38 36 34 32 31 30 31 31 31 32 33 30 26 21 17 15 14 15
9 9 9 8 8 8 8 7 7 7 7 7 7 7 8 11 15 19 20 20 23 27 29 29 27 24 22 22 23 26 29 33 32 27 20 17 16 16 17 16 16 18 19 19 18 17 16 16 16 16 17 17 17 18 20 21 25 29 33 36 40 43 45 45 43 39 37 38 38 38 39 38 37 35 33 31 30 30 31 31 33 34 32 28 23 19 15 15
9 9 8 8 8 8 8 7 7 6 7 7 7 7 7 9 11 15 19 20 22 25 29 30 29 27 24 22 22 24 27 32 35 32 25 19 15 16 17 16 16 17 18 19 19 18 17 16 16 16 16 17 17 16 17 18 20 22 25 29 34 39 43 45 47 45 42 41 41 40 40 40 39 38 37 34 31 31 31 31 32 34 35 32 29 25 21 18
8 8 8 8 8 8 7 7 7 7 6 7 7 7 7 8 8 11 16 20 21 23 28 32 30 28 27 24 23 22 25 30 35 35 30 22 16 15 16 17 16 16 17 18 19 19 18 17 17 17 16 17 17 16 16 16 17 19 20 23 27 32 38 42 46 49 48 47 45 43 42 41 40 40 41 38 35 32 32 32 32 34 35 35 33 31 27 23
8 8 8 8 7 7 7 7 7 7 6 6 7 7 7 7 7 9 12 17 21 23 27 30 30 29 29 27 25 23 24 29 34 37 35 27 20 16 15 17 16 16 16 16 18 19 19 18 18 18 17 17 17 16 16 16 16 17 18 20 22 25 30 37 42 47 50 50 49 47 43 41 41 42 43 42 39 36 34 33 33 33 34 35 36 34 32 28
9 9 8 8 8 7 7 7 7 7 7 6 6 7 7 7 7 8 9 13 18 23 25 27 29 32 32 30 27 24 23 26 31 36 38 33 25 18 15 16 17 16 16 16 17 19 20 19 18 18 18 17 17 17 16 16 15 16 17 18 20 21 25 31 37 43 47 49 50 50 46 40 40 43 45 45 43 39 37 35 34 34 34 35 36 35 34 31
9 9 8 8 8 8 7 7 7 7 7 7 6 7 7 7 7 7 8 10 14 20 24 26 29 33 34 32 29 26 24 24 28 35 39 37 31 22 16 15 16 17 17 16 17 18 20 20 19 19 19 18 18 17 16 16 15 15 16 17 18 20 22 26 31 37 43 47 49 51 48 41 38 41 44 44 43 41 40 38 36 35 35 35 36 36 35 33
9 9 9 8 8 8 8 7 7 7 7 8 7 7 7 7 7 7 8 9 11 16 21 25 29 32 34 33 31 30 27 24 27 32 36 38 37 30 21 16 16 17 17 17 17 17 19 20 20 19 20 19 19 18 17 16 15 15 15 16 18 19 21 23 27 32 38 44 47 50 51 44 39 41 43 42 41 40 40 40 39 37 37 37 37 36 36 35
9 9 9 9 8 9 8 8 8 8 8 8 8 7 7 7 7 7 7 9 9 12 17 23 28 31 34 35 34 33 30 26 26 28 32 38 41 37 28 20 16 17 18 18 18 18 18 19 20 19 20 19 19 19 18 15 15 16 15 16 18 19 21 22 24 29 35 41 45 49 51 47 41 41 41 41 41 39 39 40 39 39 39 38 38 38 37 36
10 9 9 9 9 9 8 8 8 8 8 9 8 8 7 7 7 7 7 8 9 10 14 19 25 29 31 33 35 37 34 30 27 27 30 38 43 42 35 26 20 17 18 19 18 18 18 18 19 19 20 20 19 19 18 16 16 16 16 16 17 19 21 22 24 27 32 38 43 47 50 48 44 41 40 40 40 39 39 39 39 38 39 40 40 39 39 38
11 10 9 9 9 9 9 9 9 9 9 9 9 9 8 7 7 7 7 8 9 11 12 16 21 27 30 32 35 38 37 33 29 27 29 36 42 44 41 34 26 20 19 19 19 19 19 18 18 19 19 19 19 19 18 18 16 16 17 16 16 18 20 22 24 26 29 35 39 44 48 49 46 42 40 40 41 40 40 40 40 38 38 40 41 40 40 39
12 11 9 9 10 9 9 9 9 9 9 10 10 9 9 8 8 8 7 8 9 11 13 14 18 24 28 32 35 37 39 38 34 29 29 34 41 44 44 41 33 25 21 20 20 19 19 19 18 19 19 19 19 19 19 18 16 15 17 17 16 18 19 21 24 26 30 34 37 41 46 49 48 44 40 40 41 41 40 40 41 39 38 39 39 40 39 39
14 12 10 10 10 10 10 9 9 10 9 10 10 10 9 9 8 8 8 8 9 11 13 14 16 21 26 31 34 35 38 41 39 34 31 33 39 43 45 45 40 32 26 24 22 21 19 19 19 18 19 19 19 19 19 18 15 16 18 18 17 17 19 21 23 26 32 35 37 41 45 48 48 45 42 42 43 42 41 41 42 41 40 39 39 39 39 39
16 14 12 11 11 11 11 10 10 10 10 10 11 10 10 9 9 9 8 8 9 11 14 14 15 19 23 27 32 34 37 41 42 39 34 33 38 43 46 47 45 39 33 28 24 22 20 19 19 19 19 19 19 20 19 18 16 16 17 18 17 17 19 21 22 27 34 38 40 43 46 48 49 46 43 43 45 45 43 43 44 45 43 40 39 39 38 37
17 16 14 12 12 12 12 11 10 10 10 11 11 11 10 10 9 9 8 9 9 12 14 15 15 18 21 25 31 34 36 41 44 43 39 35 37 42 46 48 47 43 38 32 27 24 22 20 19 19 19 19 19 19 19 18 16 15 16 18 18 17 19 20 23 27 34 40 44 46 47 49 49 46 44 46 47 46 46 46 47 48 46 43 41 40 37 34
17 17 16 14 14 14 13 12 11 11 11 11 11 11 11 10 9 9 9 9 10 12 14 15 16 18 21 25 30 34 37 40 44 46 43 39 38 41 45 48 49 46 40 35 30 25 22 21 20 19 19 19 19 19 19 18 16 15 16 17 18 18 19 20 23 27 34 41 45 47 48 49 48 46 46 48 49 48 49 50 50 49 47 44 43 41 38 35
19 18 18 16 16 16 15 14 12 11 11 11 11 11 11 10 10 9 9 9 10 12 14 16 17 19 22 24 28 33 37 40 44 47 47 44 41 42 46 48 48 46 42 37 33 29 24 21 19 19 18 18 18 19 18 18 16 15 15 17 17 17 19 21 23 28 35 42 46 48 49 49 49 48 49 50 50 51 52 52 51 50 47 46 46 44 41 38
24 19 20 19 18 19 17 15 14 12 12 11 11 11 11 11 10 9 9 9 10 12 15 17 19 19 21 23 26 32 37 40 45 48 50 49 45 43 46 48 47 45 43 39 35 32 28 23 20 18 18 18 18 18 18 17 16 16 16 16 16 16 18 21 24 29 36 43 47 50 51 50 50 50 52 53 53 54 56 55 54 53 50 50 51 49 47 44
29 21 20 20 21 21 19 17 15 13 12 11 11 11 11 10 10 9 9 10 10 12 16 19 21 21 21 23 26 31 37 43 47 49 51 51 48 46 45 46 46 45 43 40 37 34 31 26 22 19 17 17 17 17 17 16 16 16 16 16 15 15 17 22 26 31 38 46 50 52 52 51 51 52 54 56 57 57 58 57 55 54 52 53 54 52 49 47
Wind_Speed
30 28 27 25 24 22 20 19 18 17 16 14 13 12 10 8 8 6 5 5 5 6 7 9 11 12 14 15 17 18 18 19 20 22 23 23 23 24 25 26 27 29 31 32 34 36 39 41 42 42 42 41 39 36 31 26 21 15 10 7 3 0 1 2 5 6 6 8 11 11 9 7 6 6 6 7 8 7 5 3 3 2 2 1 0 0 0 0
32 31 30 28 27 26 24 22 20 19 19 17 16 15 14 11 10 9 7 7 6 6 6 8 9 11 12 14 15 17 17 18 19 20 22 22 22 22 23 24 26 27 29 31 32 34 36 39 40 41 41 41 39 37 33 29 25 21 16 11 7 3 1 2 1 3 3 5 8 9 9 8 6 5 5 6 7 6 3 1 1 1 1 1 1 1 1 1
35 34 33 31 30 28 27 25 23 21 21 20 19 18 17 15 13 12 10 9 8 7 6 7 9 10 11 13 14 16 17 17 17 19 20 21 21 21 22 23 24 26 27 29 30 32 33 36 38 40 40 40 39 38 35 32 28 25 21 16 11 7 4 3 2 1 2 3 4 6 7 7 6 4 3 4 5 5 3 1 1 1 0 1 2 2 1 1
38 36 36 35 33 31 30 28 26 24 23 23 22 21 20 18 16 15 13 11 10 9 8 7 8 9 11 12 13 15 16 17 17 18 19 20 20 20 21 22 23 25 26 27 29 30 31 33 36 38 39 40 39 38 36 33 30 28 25 22 17 11 7 4 3 4 4 4 4 4 5 6 7 5 3 2 2 3 2 1 1 0 0 0 0 1 1 3
40 39 38 37 36 35 33 31 29 27 26 25 24 23 22 21 19 17 16 14 12 11 9 8 8 9 10 11 12 14 16 17 17 17 17 18 19 20 20 20 22 23 25 26 27 28 29 31 33 36 38 39 39 38 37 34 32 29 27 25 21 16 12 7 4 5 6 6 5 4 5 5 6 6 4 2 1 2 2 2 1 1 2 2 2 3 4 5
42 41 40 40 39 38 36 34 32 31 29 27 26 25 24 23 22 20 19 17 15 13 11 10 9 9 10 11 12 13 15 16 17 16 17 17 18 19 19 19 20 22 23 24 26 27 28 28 30 33 36 38 39 38 36 35 33 30 28 26 24 20 17 12 8 6 8 8 6 5 4 4 4 5 4 4 3 4 4 4 4 3 3 3 4 5 5 6
44 43 43 42 41 40 39 37 35 33 32 30 29 28 27 26 24 22 21 19 17 15 13 12 11 10 10 10 11 12 14 15 16 16 16 17 17 17 18 19 19 20 21 23 24 26 26 27 28 31 34 36 38 38 36 35 34 31 29 27 25 22 18 14 9 7 8 8 7 6 5 4 3 3 4 4 4 4 4 5 6 6 5 5 5 5 5 6
46 46 45 44 44 43 41 40 38 36 35 33 32 30 29 28 26 24 23 21 20 18 16 13 13 11 10 10 11 12 13 14 16 16 16 16 17 17 17 18 18 18 20 22 23 24 25 26 27 29 32 34 37 38 37 35 35 33 30 28 27 23 18 13 9 7 5 6 7 7 6 5 4 4 4 4 4 4 5 6 6 6 6 6 6 6 6 6
45 47 47 46 46 45 44 42 40 39 37 36 35 33 32 30 29 27 25 23 22 20 18 15 14 13 11 11 11 11 12 14 15 16 16 16 17 17 16 17 18 18 18 20 21 23 25 25 25 27 29 33 35 37 37 36 35 34 32 30 28 25 20 15 10 7 4 3 4 5 5 5 5 5 5 5 5 6 6 6 6 6 7 7 7 7 7 7
45 46 48 49 48 47 46 45 43 41 40 39 38 36 34 33 31 29 27 26 24 22 20 17 16 14 13 12 11 11 12 13 14 15 16 16 16 17 16 16 17 18 18 18 20 22 23 24 25 26 28 30 34 36 37 36 35 34 33 31 29 27 23 18 13 8 5 3 2 1 2 3 4 5 6 6 7 7 7 7 7 7 7 7 8 8 8 8
47 46 47 49 50 49 48 47 45 43 42 41 40 38 37 35 34 32 30 28 26 24 22 20 18 16 15 13 12 12 12 13 14 15 16 16 17 17 17 15 15 17 17 17 19 20 22 23 24 25 26 28 32 34 36 36 35 34 33 32 30 27 25 22 18 14 11 8 5 3 2 3 4 5 6 7 7 7 7 6 7 7 7 7 8 8 8 8
49 48 48 48 50 51 51 49 47 46 44 43 42 41 39 38 36 35 33 31 29 27 24 22 20 18 16 15 14 13 13 14 15 16 16 17 17 17 17 16 15 16 17 16 17 19 20 22 23 24 25 26 29 32 35 35 35 34 33 32 30 28 26 24 23 20 16 11 7 4 2 2 3 4 5 5 6 6 5 5 6 7 7 8 8 8 8 7
51 50 50 49 49 50 51 51 49 48 47 46 44 43 42 40 39 37 35 33 31 30 27 25 22 20 19 17 16 15 14 14 15 16 17 17 18 18 17 16 15 14 15 16 15 17 19 20 22 22 23 24 27 30 33 34 35 34 33 32 31 29 27 25 25 23 19 15 12 8 5 3 1 2 3 3 4 4 5 5 6 7 8 8 8 8 8 8
54 52 51 51 51 50 51 52 51 50 49 48 46 45 44 42 41 40 38 36 34 32 30 28 25 23 21 19 18 17 16 16 16 17 17 18 18 18 17 17 16 14 14 15 15 15 17 19 20 21 22 23 24 27 30 33 34 33 32 31 30 29 28 26 25 24 21 18 15 11 8 6 5 3 2 2 3 3 5 5 6 6 7 8 8 8 9 10
57 55 54 53 52 52 52 51 51 52 51 50 48 47 46 45 43 42 40 38 37 35 33 31 28 26 24 22 20 19 18 17 17 17 18 19 19 19 18 17 16 14 13 14 14 13 15 17 18 19 20 21 22 24 28 30 33 33 31 30 29 29 29 27 25 22 21 19 16 13 10 8 6 5 3 2 1 2 3 3 4 5 6 7 8 10 11 12
59 58 57 55 54 54 53 52 51 52 52 52 51 49 48 47 45 44 43 41 39 38 36 34 32 29 27 25 23 22 20 19 18 18 19 19 19 19 19 18 16 15 13 13 13 13 13 15 16 17 18 19 20 22 25 28 30 31 31 29 28 27 28 28 26 23 20 18 17 15 12 10 8 7 6 5 5 5 4 4 5 5 6 8 10 11 12 13
61 60 59 58 57 56 55 54 53 52 52 53 53 52 50 49 47 46 45 43 41 40 38 37 35 33 30 28 26 25 23 22 21 20 20 20 20 20 19 18 17 16 14 13 13 13 12 14 15 15 16 17 18 20 22 25 28 30 30 29 27 26 26 26 26 24 21 18 16 15 14 12 10 8 7 7 7 7 6 7 7 7 8 10 11 13 13 13
63 61 60 59 59 58 57 55 54 54 53 53 53 53 52 51 50 49 47 46 44 42 41 39 38 36 34 31 29 28 26 24 23 22 21 21 21 20 20 19 17 16 15 13 13 13 12 13 14 14 15 16 17 18 20 22 24 27 28 29 28 26 26 26 25 24 23 21 18 15 14 12 10 9 8 8 8 8 8 8 8 9 9 10 12 13 13 14
64 63 62 61 60 60 59 57 56 56 55 54 54 53 53 53 52 51 50 48 46 44 43 42 40 40 38 35 33 31 29 27 26 24 22 22 22 21 20 19 18 17 16 15 14 13 13 13 14 14 15 15 16 17 18 19 21 23 25 27 28 27 26 25 25 24 24 23 22 18 15 13 11 9 9 9 9 9 10 10 10 10 10 11 12 13 14 15
67 65 64 63 62 61 60 59 58 57 57 56 55 54 54 54 53 52 52 50 48 47 45 44 43 42 41 39 36 34 32 30 28 27 25 24 23 22 21 20 19 18 17 16 14 13 13 14 14 14 15 15 16 16 17 18 18 20 22 24 26 26 25 24 24 24 24 24 23 21 19 17 15 13 11 11 11 11 11 12 12 12 12 12 13 13 14 16
68 68 67 65 64 63 62 61 60 59 59 58 57 56 55 54 54 54 53 52 51 49 48 46 46 45 44 42 40 38 35 33 31 29 27 26 24 23 22 21 20 19 18 17 16 14 14 14 14 14 15 16 16 16 16 17 17 18 19 21 23 24 25 24 24 24 24 24 23 23 21 20 18 17 16 14 13 13 13 13 14 15 15 14 14 15 15 15
67 68 68 68 67 65 64 62 61 61 61 60 59 58 56 56 55 55 55 54 53 52 50 49 48 46 46 45 43 40 38 35 33 31 30 28 26 24 24 23 21 19 18 18 17 15 14 15 15 14 15 16 16 17 16 16 16 17 18 19 20 22 23 23 23 23 23 23 23 23 22 21 20 19 19 18 16 16 15 15 16 17 18 17 17 16 16 16
67 68 68 69 69 68 67 65 63 62 62 62 61 59 58 57 57 56 56 56 55 54 53 51 50 49 48 46 45 43 41 38 35 33 32 30 28 26 25 24 22 20 19 19 18 16 15 15 15 15 15 15 16 17 17 17 17 17 17 18 19 20 21 23 23 23 22 22 22 22 22 21 21 21 20 20 19 18 17 16 17 18 19 20 19 19 18 18
67 68 68 68 69 70 70 68 65 64 63 63 62 61 60 59 58 58 58 57 57 56 55 53 52 51 49 48 46 45 42 40 37 36 34 32 30 28 27 25 23 22 21 20 19 17 16 16 16 16 16 16 16 17 17 17 17 17 17 17 18 18 19 21 22 23 22 21 21 21 21 21 20 21 21 21 21 20 19 18 18 19 20 21 22 21 21 21
68 68 68 68 69 70 71 71 69 67 65 63 63 63 62 61 60 59 59 59 59 58 57 56 55 53 51 50 48 46 43 41 39 38 36 34 32 31 29 27 25 23 22 21 20 19 18 18 18 17 17 16 17 17 17 17 17 18 18 18 18 18 18 19 20 21 22 22 21 20 20 20 20 20 20 21 21 21 21 20 19 19 20 21 23 23 23 23
68 68 69 69 69 69 70 71 71 70 68 65 64 63 63 62 61 61 61 61 60 59 59 58 57 55 53 51 49 47 44 42 41 40 38 36 35 33 31 29 26 25 24 23 22 20 19 19 19 19 18 18 18 18 17 17 17 17 18 18 18 19 18 19 19 19 20 21 21 20 19 19 19 19 20 20 20 20 21 21 20 20 20 21 23 24 24 24
68 69 69 70 70 70 71 71 72 72 71 69 66 64 64 64 63 62 62 63 62 61 61 60 58 57 55 53 51 48 45 44 42 41 40 38 36 35 34 31 28 27 25 24 23 22 21 20 20 20 20 19 19 19 19 18 18 18 18 19 19 19 19 19 19 19 19 19 20 21 20 19 19 19 19 19 20 20 20 21 21 21 21 22 23 24 24 24
69 69 69 70 71 72 72 71 72 72 73 72 69 67 66 65 65 64 64 64 62 62 62 61 60 58 57 55 52 49 48 46 44 42 42 41 38 37 36 34 31 29 27 26 25 23 22 22 21 21 21 21 21 21 20 20 19 19 20 20 20 20 21 20 20 20 19 19 19 20 20 20 20 20 20 20 20 20 20 21 21 21 22 22 23 24 24 25
71 70 69 70 71 72 73 72 72 73 73 73 72 70 68 67 66 66 66 64 63 64 64 63 61 60 58 56 54 52 50 48 45 43 43 42 41 40 39 36 33 31 29 28 27 25 24 23 22 22 22 22 22 22 22 22 21 21 21 22 22 22 22 22 22 21 21 20 19 19 20 20 21 21 22 21 21 21 21 21 22 22 22 23 23 24 25 25
73 72 71 70 71 72 73 74 73 73 74 74 74 73 71 69 68 68 67 65 65 66 65 64 63 62 60 58 56 54 52 50 47 45 44 44 43 42 41 39 36 33 31 30 30 28 26 25 24 23 23 23 23 23 23 23 23 22 23 24 24 24 25 25 24 23 22 21 21 20 21 20 20 21 23 23 23 23 22 22 23 23 24 24 24 25 26 27
74 74 73 72 71 71 72 74 75 74 74 75 75 75 74 72 70 69 68 66 66 67 66 65 65 63 62 60 58 56 54 52 50 47 46 45 45 45 44 41 38 36 34 33 33 31 29 27 25 24 23 23 24 25 25 25 25 24 24 25 26 26 27 27 27 26 25 24 22 22 22 22 21 21 23 24 24 24 24 24 24 24 25 25 26 27 28 29
76 76 75 74 72 71 71 73 75 76 76 76 76 76 76 75 72 70 69 69 70 69 67 66 66 65 64 63 60 58 56 54 52 49 47 46 46 47 46 43 40 38 37 36 35 33 31 29 28 26 25 24 25 25 26 26 26 26 25 26 27 28 29 29 29 28 28 26 25 24 24 24 23 22 23 24 25 25 26 26 26 25 26 27 28 28 29 31
78 78 77 75 74 73 71 72 75 76 77 77 78 78 78 77 74 72 72 72 71 70 68 67 67 67 66 64 62 59 58 56 53 51 49 48 47 47 47 44 42 42 41 39 38 35 33 32 30 28 27 26 26 26 26 27 28 28 27 28 29 30 31 31 32 31 31 30 28 28 27 26 25 24 24 25 26 26 27 28 28 27 27 29 30 30 31 32
80 80 79 77 76 75 73 73 74 76 78 79 79 79 78 77 76 76 76 74 72 71 70 69 68 68 67 65 63 61 59 57 55 54 51 49 48 47 48 47 46 45 44 42 40 38 37 35 33 31 29 29 28 27 27 28 29 29 29 30 30 31 32 32 33 33 34 33 32 31 30 29 28 26 26 26 27 27 27 28 30 30 30 30 31 31 32 33
82 82 81 79 78 77 76 75 74 75 77 79 80 80 79 79 79 80 79 76 74 73 72 71 70 69 68 66 64 63 61 59 57 55 53 50 49 49 49 50 49 48 46 45 43 41 40 38 35 33 31 31 30 29 29 29 29 30 30 30 31 32 33 33 33 35 35 35 35 34 33 32 31 30 29 28 28 29 29 29 31 32 33 33 33 33 34 35
83 83 83 81 80 79 78 77 76 75 77 79 80 80 81 83 83 82 80 77 76 75 74 73 72 71 69 67 66 64 62 60 59 57 54 53 52 51 51 52 52 50 50 48 46 44 42 40 38 36 34 34 33 32 31 31 31 31 31 31 32 33 34 34 34 35 36 37 37 37 36 36 35 33 33 32 31 31 31 31 32 33 35 36 36 36 36 37
84 85 84 83 81 80 80 79 78 76 77 79 80 80 83 86 85 83 81 80 79 77 76 76 75 72 70 68 67 65 63 62 61 59 57 56 54 53 53 54 54 53 53 51 48 47 45 42 40 39 38 37 36 35 33 33 33 33 32 33 34 34 34 35 35 37 38 38 39 39 38 38 38 37 36 35 34 33 33 33 33 34 36 38 39 39 39 39
85 86 85 84 83 82 81 81 80 79 78 78 79 81 84 87 87 86 83 82 81 80 79 78 76 74 71 70 68 67 65 64 63 61 59 58 57 56 56 55 55 56 55 53 51 49 48 45 43 42 41 40 39 37 36 36 35 35 34 34 35 35 35 35 36 38 39 40 40 41 40 40 40 40 39 39 38 37 36 36 36 36 38 39 40 41 42 42
85 86 86 85 84 83 83 82 82 80 78 78 80 82 85 87 88 88 86 85 83 82 82 80 77 75 73 72 70 68 67 66 65 63 61 60 60 58 58 58 57 58 56 54 53 52 51 49 46 45 44 42 41 40 39 38 37 37 37 36 36 37 36 36 37 39 40 41 42 42 42 40 40 41 41 42 42 41 40 40 39 39 40 41 42 44 44 44
83 85 86 85 84 84 83 83 83 81 79 78 81 83 86 87 89 90 89 87 86 85 83 81 79 78 77 74 72 69 68 67 66 65 64 63 61 61 61 60 59 58 58 56 55 54 53 52 49 47 47 45 44 43 42 40 39 39 39 38 38 38 37 37 39 40 41 43 43 45 44 42 40 41 42 43 43 43 43 42 42 42 43 44 45 46 47 47
81 84 85 85 84 84 84 83 83 81 79 80 82 85 87 88 89 91 92 90 88 87 85 83 82 80 78 76 74 71 70 69 67 67 67 64 63 63 63 61 60 59 59 57 57 56 56 55 52 50 50 49 46 46 45 43 42 42 41 40 39 39 39 39 40 42 43 44 45 46 47 45 42 42 44 44 45 44 44 44 44 44 45 45 47 48 49 50
78 81 84 84 83 84 84 83 82 82 81 81 84 86 88 89 89 91 94 93 91 89 87 85 84 82 81 78 76 73 72 70 69 69 68 66 65 65 65 63 62 61 60 59 59 59 58 58 55 51 52 52 49 49 48 45 44 44 43 42 40 40 41 41 42 44 44 45 46 48 50 48 45 45 46 46 46 46 46 45 45 45 46 47 49 50 51 51
73 78 81 83 82 83 83 82 82 82 81 82 84 87 88 89 89 91 94 95 94 92 90 88 86 85 83 80 77 76 74 72 71 70 69 68 68 67 66 65 64 63 61 60 60 61 61 60 57 54 54 54 52 51 50 48 47 46 45 43 41 42 42 43 44 45 46 47 48 49 52 51 48 47 48 47 47 48 47 47 47 47 47 48 50 51 52 52
69 74 78 80 81 81 82 81 81 81 81 82 85 87 88 90 90 91 94 96 96 94 92 90 88 87 85 82 80 78 77 74 73 71 70 70 70 69 67 67 66 65 63 62 62 63 62 61 60 58 57 56 55 54 52 52 51 48 45 45 44 44 44 44 45 47 48 49 49 51 54 54 51 51 50 49 49 49 49 50 49 49 49 49 51 52 53 53
65 70 74 77 78 79 80 80 81 81 81 83 85 87 88 90 91 91 94 97 98 97 95 93 91 89 87 84 82 80 78 76 74 73 72 72 72 71 70 69 68 67 65 64 64 64 63 62 61 60 58 57 57 56 56 56 53 48 47 48 46 45 45 45 46 47 49 50 51 53 55 56 54 53 52 51 51 51 52 52 52 51 51 51 52 53 54 55
61 66 70 73 75 77 78 79 80 80 81 82 84 86 88 90 91 92 94 97 99 99 98 96 93 91 89 87 85 82 80 78 77 75 74 74 74 73 72 71 69 68 67 66 65 64 63 63 63 62 61 60 60 58 59 58 55 51 50 50 49 47 47 47 48 48 50 51 52 55 56 57 57 56 54 53 53 54 54 54 54 54 54 54 54 55 55 56
58 62 66 69 72 74 76 78 78 79 80 81 83 85 88 90 92 93 94 97 100 101 100 98 96 94 91 89 86 84 82 80 78 77 76 75 75 75 74 73 71 70 69 68 66 65 65 64 64 64 63 62 61 60 60 60 57 54 53 52 51 50 49 49 49 50 52 52 54 57 57 58 59 59 56 55 55 56 57 57 56 57 57 57 57 57 57 58
56 59 63 66 69 71 73 75 77 77 79 80 82 85 88 90 92 93 94 97 100 102 102 101 98 96 93 90 88 86 84 82 80 79 78 77 76 76 75 75 74 72 71 69 68 67 67 66 66 65 65 64 64 63 62 61 59 57 56 54 53 52 51 51 51 52 54 54 56 58 58 59 61 61 57 57 58 59 59 59 58 59 60 60 60 60 60 60
53 56 60 63 65 68 71 73 75 76 78 79 81 84 87 90 92 94 95 97 100 103 103 102 99 97 95 92 90 88 86 84 82 81 80 78 78 77 77 76 76 75 73 71 70 69 69 68 67 67 66 66 65 65 64 63 61 60 58 56 55 54 54 54 54 55 56 56 58 59 59 60 62 62 60 60 60 60 61 61 61 61 62 63 63 64 63 63
52 54 57 60 63 65 68 70 72 74 76 78 81 84 87 90 92 94 95 97 100 102 104 103 101 99 97 95 92 90 88 86 84 82 81 80 79 79 78 79 79 77 75 74 72 71 71 69 69 68 68 67 67 66 66 65 63 62 60 58 56 56 57 57 56 57 58 58 59 60 59 61 63 63 62 62 62 62 63 63 63 64 64 65 65 66 66 66
50 52 55 58 60 62 64 67 70 72 74 76 79 83 86 89 92 94 95 97 100 102 103 103 102 100 99 96 94 91 89 87 86 84 83 82 81 80 80 81 80 79 78 76 74 73 72 70 70 69 68 68 69 68 67 67 65 64 61 59 59 60 60 59 58 58 59 60 60 60 60 61 62 63 63 63 63 63 63 64 64 65 66 66 66 66 67 67
50 50 53 55 58 60 61 64 66 69 71 74 77 81 85 89 92 94 95 97 99 101 103 103 103 102 100 97 95 93 91 89 88 87 85 84 83 82 82 82 82 80 79 78 76 75 73 72 71 70 70 70 71 70 69 68 66 64 62 62 63 63 63 61 60 61 61 61 61 60 61 62 63 63 63 63 64 64 64 64 65 66 67 67 67 67 68 68
Wind_Direction
236 236 236 237 240 239 237 236 240 248 252 252 253 256 259 262 270 280 295 313 338 4 11 10 13 17 19 19 20 20 21 22 23 27 30 31 32 33 34 33 33 32 31 32 32 33 33 34 33 32 33 33 33 32 31 31 30 30 31 33 37 91 206 190 143 129 129 127 128 131 131 127 120 110 101 98 98 94 83 60 31 19 25 19 65 73 46 360
236 238 238 238 240 241 241 239 239 244 250 253 255 258 260 262 266 274 282 294 311 335 353 360 3 9 14 15 15 17 17 18 20 23 27 29 30 31 32 32 32 31 31 31 31 31 32 33 32 31 31 32 32 31 30 29 27 25 25 26 26 15 336 274 158 123 138 142 137 136 132 127 119 106 93 86 87 87 77 50 19 13 21 45 72 75 90 117
235 237 239 239 239 241 243 242 240 241 247 252 255 258 261 263 266 271 276 284 294 311 330 345 352 358 6 10 10 12 12 14 15 19 23 25 27 28 29 30 30 30 30 30 30 31 31 32 32 31 30 31 31 31 29 28 26 25 23 22 27 27 12 331 305 233 192 175 147 132 129 129 127 118 88 69 74 87 98 117 112 91 73 91 76 72 61 42
234 235 238 240 240 240 242 244 243 242 244 249 253 256 260 263 266 269 273 278 286 296 312 327 339 347 355 3 4 6 8 8 11 14 18 21 23 24 26 27 28 28 29 29 29 30 30 30 31 31 30 30 30 30 29 28 26 25 23 21 24 31 33 7 297 260 236 209 172 142 139 144 150 150 118 67 43 67 81 59 72 65 251 236 73 22 360 360
235 235 236 238 240 241 241 243 245 244 244 246 250 254 258 261 264 268 271 275 280 288 299 311 325 336 344 353 358 0 3 3 6 9 12 16 18 20 22 24 25 26 27 28 28 29 29 28 29 30 29 29 29 29 29 28 27 26 24 22 20 23 30 23 329 271 249 233 204 174 159 161 168 170 165 176 263 305 324 330 323 315 294 288 296 304 314 325
236 236 236 237 239 240 241 242 244 245 245 246 248 252 255 258 261 265 268 272 276 282 289 300 311 325 333 342 350 354 357 358 1 4 6 9 13 16 18 19 22 22 23 26 26 27 29 27 27 28 28 28 28 28 28 27 27 28 27 25 22 19 20 13 341 292 255 237 219 202 187 184 187 188 191 209 240 260 278 290 291 289 286 288 291 294 302 309
236 236 236 237 238 239 240 241 242 245 246 246 248 250 253 256 259 262 265 269 272 277 283 290 300 312 324 332 340 347 350 353 356 359 0 3 6 10 13 15 17 18 19 22 24 25 27 27 26 26 27 27 28 28 27 27 27 28 29 29 27 25 22 12 347 309 263 233 216 211 210 215 220 217 218 228 247 254 263 274 282 286 285 284 285 289 297 307
236 236 236 237 237 238 239 240 241 243 245 247 248 249 252 254 257 259 262 266 269 273 277 283 292 301 312 323 330 338 342 345 349 353 355 357 0 3 7 11 13 12 14 18 21 23 25 27 25 25 26 26 27 27 27 26 27 28 30 31 32 32 31 25 7 334 287 239 216 213 214 224 238 243 244 250 265 268 267 270 275 281 286 289 291 291 294 304
236 236 236 236 237 238 239 240 240 241 244 246 247 249 251 254 256 258 260 263 266 269 273 278 284 292 301 312 320 327 332 337 342 347 349 351 355 357 0 6 8 7 9 14 18 20 23 26 26 24 25 26 26 27 26 26 26 28 30 32 34 34 35 35 24 1 330 278 231 216 213 223 241 252 258 266 273 274 272 274 275 279 286 292 296 299 303 307
236 236 236 236 237 238 239 240 240 240 242 244 246 248 250 252 255 256 258 260 263 266 270 273 278 284 292 300 309 317 322 328 334 339 342 345 348 352 355 360 3 4 4 9 14 17 20 24 26 24 24 26 26 26 26 26 26 27 29 31 34 34 34 35 34 28 24 17 346 270 240 247 254 260 268 273 274 276 279 281 285 287 291 294 298 304 307 307
235 235 236 236 237 237 238 239 240 240 241 243 245 247 248 251 253 255 257 258 261 263 266 269 273 277 284 290 298 306 313 318 325 330 334 339 342 346 350 352 356 360 1 4 10 14 16 21 25 24 24 25 25 25 26 26 26 27 28 29 32 34 34 35 37 39 39 37 24 7 339 293 278 267 271 277 280 282 286 292 296 298 301 302 303 305 305 305
235 235 235 236 237 237 238 238 239 239 240 242 244 245 247 249 251 254 255 257 259 261 263 265 269 273 277 282 289 296 303 309 317 322 326 331 336 340 344 346 348 354 357 359 5 10 12 18 23 24 24 24 24 25 26 27 27 27 27 28 30 31 33 34 36 39 40 39 36 30 12 308 279 266 270 279 283 287 295 305 313 317 317 316 312 310 311 314
235 235 235 236 237 237 238 238 238 239 240 241 242 244 246 247 249 252 254 256 257 259 261 262 265 269 272 275 281 288 293 301 308 313 318 323 329 333 337 340 341 345 353 355 358 5 8 13 21 24 24 24 24 25 25 27 28 27 26 26 27 28 31 34 36 38 38 39 41 37 23 3 328 274 273 283 294 305 318 326 330 330 326 321 321 325 331 337
234 235 235 235 236 237 238 238 238 238 239 240 241 243 245 246 247 250 252 254 256 258 260 261 262 265 268 271 275 280 286 292 300 305 310 315 321 327 330 333 336 337 344 349 352 358 3 8 16 22 24 24 24 25 25 27 29 29 27 26 25 25 28 33 37 39 37 39 43 39 30 30 34 28 11 333 326 334 336 332 330 326 324 325 333 343 351 352
233 234 235 235 236 237 238 238 238 238 238 239 240 241 243 245 246 248 250 252 253 256 258 260 260 262 264 268 271 276 280 285 292 297 302 308 314 319 323 326 330 330 334 342 346 350 357 3 11 19 22 23 23 25 25 26 29 30 28 27 24 23 25 30 36 39 39 41 44 44 42 44 46 49 60 65 45 30 5 349 341 338 340 344 351 358 357 353
233 233 234 235 236 236 237 238 238 238 238 239 239 240 242 244 245 246 248 249 251 254 256 258 260 260 261 265 268 271 275 279 284 289 294 301 308 312 316 319 323 324 325 332 339 343 348 355 4 12 19 21 22 24 24 25 28 29 29 28 26 24 24 27 31 36 38 39 42 46 50 55 61 70 83 91 87 74 56 41 22 9 2 359 1 1 355 349
233 233 233 234 235 236 237 237 238 239 239 239 239 239 240 242 244 245 247 248 249 251 253 256 258 259 260 262 265 268 271 274 278 282 287 293 300 305 309 313 316 318 318 321 330 335 338 345 354 4 12 17 19 21 23 24 25 27 28 28 27 27 26 27 29 31 34 35 36 40 44 48 52 54 63 70 68 62 51 41 28 15 8 4 1 357 352 349
234 233 233 233 234 235 236 237 238 239 239 239 239 239 239 240 242 244 245 247 248 249 251 253 256 258 259 260 262 265 267 270 273 277 281 286 293 299 303 307 309 311 313 312 320 328 331 334 343 354 3 10 14 17 20 23 23 24 25 26 26 27 28 28 28 29 31 33 33 32 33 36 37 34 35 41 43 43 39 33 26 18 11 6 360 355 352 351
234 234 234 233 233 234 235 236 237 238 239 239 240 239 239 239 240 242 244 245 246 247 249 251 253 256 257 258 260 262 264 267 269 272 275 280 286 292 296 301 303 305 307 307 310 321 325 325 332 343 352 360 6 11 16 20 22 22 23 24 24 26 28 28 29 29 30 32 34 34 31 28 28 24 21 24 26 26 26 25 21 18 15 9 2 356 354 354
234 234 234 234 233 233 234 234 236 237 238 239 240 240 240 239 239 241 243 244 245 246 248 249 251 253 256 257 258 260 262 263 266 268 271 274 279 285 290 294 297 298 301 302 303 311 319 320 325 333 341 348 355 2 8 14 18 19 21 22 24 25 26 27 27 29 29 31 32 35 35 32 30 28 23 20 18 17 16 13 11 11 11 9 3 358 357 355
234 234 234 235 234 234 233 233 234 236 237 238 239 240 240 240 239 240 242 243 244 245 246 248 249 251 253 255 256 258 260 261 262 264 266 269 273 278 284 287 290 291 294 297 297 302 311 315 319 325 332 338 344 351 359 5 10 14 17 19 22 24 25 26 26 26 28 30 31 32 34 35 34 33 32 28 23 20 17 11 8 7 8 6 2 358 357 353
235 235 234 235 235 235 234 233 233 235 236 237 238 239 240 241 240 240 241 242 243 244 245 246 248 249 251 253 255 256 257 258 259 261 262 265 268 273 278 281 284 285 287 291 292 295 302 308 313 317 323 329 334 341 348 354 360 6 11 14 17 21 23 25 25 24 25 28 29 29 30 33 33 33 34 34 32 28 23 17 12 10 10 9 6 360 356 351
235 235 235 235 235 235 235 234 233 234 235 236 237 239 240 241 241 241 240 241 242 243 244 246 247 248 250 251 253 254 255 256 257 257 259 261 264 268 272 276 279 279 281 285 287 290 293 300 307 311 314 320 325 330 337 343 349 355 3 9 12 15 18 21 23 22 22 24 25 25 25 28 29 29 30 31 31 29 26 21 16 12 11 11 10 5 358 354
235 235 235 235 235 235 235 235 234 234 234 235 236 238 239 240 241 241 241 241 241 243 243 245 246 247 248 249 251 253 253 254 254 255 257 259 260 262 267 271 273 273 275 279 282 285 288 292 299 304 308 311 315 320 326 333 339 345 353 360 5 9 12 15 18 20 19 19 20 20 19 21 23 23 24 24 24 24 22 20 15 11 8 8 9 6 1 357
235 235 236 235 235 235 235 235 234 234 234 234 235 237 238 239 240 241 241 241 241 242 243 243 244 245 246 247 249 250 252 252 252 253 254 255 256 259 263 267 268 268 270 273 277 281 283 286 291 297 302 304 305 309 315 323 329 335 342 349 355 360 5 7 10 14 15 14 14 14 13 14 15 17 19 18 17 17 16 15 11 7 4 2 3 4 1 357
234 235 236 236 235 235 235 235 235 234 234 234 234 235 237 238 239 240 241 241 241 241 242 242 243 244 245 246 247 249 251 250 250 251 252 252 254 257 259 262 264 265 265 267 271 276 278 281 284 289 294 297 298 300 304 311 319 326 332 339 345 350 355 359 1 5 9 10 10 10 8 6 5 6 10 11 10 10 9 9 7 3 359 357 357 358 358 355
234 234 235 235 235 235 235 234 234 234 234 234 234 234 235 236 237 239 240 240 240 240 241 242 242 243 244 245 246 248 249 249 248 249 250 250 252 254 257 259 260 261 262 263 266 270 273 276 279 282 287 291 293 295 298 303 310 316 322 329 334 339 344 349 352 355 359 3 5 5 4 3 360 355 356 359 1 1 1 2 2 360 356 352 351 352 353 352
235 234 234 234 235 235 235 234 234 234 233 233 233 233 234 235 236 237 238 239 240 240 241 241 241 242 243 244 245 246 247 248 248 247 248 249 250 251 254 256 257 259 259 259 262 265 269 272 274 277 281 286 289 293 295 298 303 308 314 319 325 329 334 339 343 346 349 352 356 357 357 359 359 353 349 349 349 350 352 353 355 355 352 350 348 348 349 348
236 235 234 233 234 234 235 234 234 233 233 233 233 233 233 234 235 236 237 238 239 240 240 240 241 242 242 243 243 244 245 246 247 246 246 247 248 249 251 253 255 256 256 256 258 261 264 268 271 273 276 281 285 289 292 295 298 302 307 312 316 320 324 329 333 337 340 343 346 347 348 351 354 353 349 347 344 342 344 345 347 348 347 346 344 343 344 344
236 236 235 233 233 234 234 234 234 233 233 233 232 232 232 233 234 235 236 237 238 239 240 240 241 241 242 242 242 243 244 245 246 246 245 245 246 248 250 251 253 254 254 254 255 257 261 264 267 270 272 276 281 285 289 292 294 298 301 305 309 313 317 321 324 328 332 335 337 339 339 341 347 348 346 347 345 341 340 340 339 340 341 341 341 340 340 340
236 236 236 235 234 233 233 234 234 233 232 232 232 231 231 232 233 234 235 236 237 239 240 240 240 241 241 242 242 242 243 244 244 245 244 244 245 247 248 250 252 253 252 252 252 254 258 262 265 267 269 272 276 281 285 288 291 295 298 301 303 307 310 313 316 319 323 326 329 331 332 333 338 342 342 342 343 341 340 339 337 335 335 335 336 337 336 337
236 236 236 236 235 233 233 234 234 233 232 232 232 231 231 231 232 233 234 235 236 237 238 239 240 241 241 242 242 241 242 242 243 243 244 244 244 246 247 249 250 250 250 251 250 252 256 259 262 264 267 270 272 276 281 285 289 293 296 298 300 302 304 307 309 313 316 319 322 325 327 328 331 335 337 337 338 339 339 338 337 335 332 331 332 334 334 334
236 236 236 236 236 235 233 233 233 233 233 232 231 231 231 230 231 232 233 234 235 236 238 239 240 241 241 242 242 241 241 241 242 243 244 245 245 246 247 249 248 248 249 250 250 251 253 256 259 262 265 267 269 272 276 281 285 289 293 295 298 300 301 302 305 308 310 313 316 319 322 324 326 329 332 332 333 335 336 336 336 335 333 331 331 332 332 331
236 237 236 236 236 236 234 233 233 233 233 232 231 231 230 230 230 231 232 233 234 235 236 238 239 240 241 242 242 242 241 241 241 242 243 244 245 246 246 246 246 246 248 250 250 250 250 253 257 260 261 264 266 268 271 275 279 284 287 290 294 296 297 299 301 303 305 308 311 313 316 319 321 324 326 327 328 330 332 333 333 333 333 333 332 332 331 329
236 237 237 236 236 236 235 234 233 232 232 232 232 231 230 230 229 229 230 231 233 234 235 237 238 239 241 241 242 241 241 240 241 241 241 243 244 245 245 245 245 246 247 249 249 249 250 251 255 257 259 261 264 266 268 271 275 278 281 285 288 290 292 296 298 300 302 304 306 308 311 314 316 319 321 322 323 325 328 330 331 331 331 332 332 332 330 328
236 237 237 236 236 236 235 235 233 232 232 232 232 231 230 230 229 229 230 230 232 233 234 235 237 238 239 240 241 241 241 240 240 240 241 241 243 244 244 244 245 245 246 247 249 249 250 251 253 255 257 259 261 263 265 268 271 274 277 280 283 285 288 293 296 297 299 301 303 305 307 309 312 315 317 318 320 322 324 327 328 329 329 329 331 331 330 328
236 236 236 236 236 236 235 235 234 232 232 232 231 231 230 230 230 229 229 229 230 232 233 234 236 237 238 239 240 241 240 240 239 240 240 240 241 243 244 244 244 245 245 247 248 249 250 251 252 254 255 257 259 261 264 266 269 272 274 277 279 282 285 289 292 295 297 299 300 302 304 306 309 312 313 315 316 318 320 323 325 326 327 327 328 329 329 327
235 236 236 236 235 235 235 235 234 233 232 231 231 231 230 230 230 229 228 228 229 231 232 233 235 236 237 238 239 239 239 239 239 239 239 239 240 242 243 244 244 245 246 248 248 250 251 250 251 253 254 256 258 261 262 264 267 270 272 274 276 279 282 286 289 291 294 296 298 299 300 303 306 309 310 312 314 316 318 320 321 323 324 325 326 326 327 326
235 235 235 235 235 235 235 235 234 233 232 231 230 230 230 230 229 229 229 228 229 230 231 232 234 235 236 237 238 238 239 238 238 238 238 239 239 241 242 243 244 245 246 248 248 249 251 250 250 252 254 256 258 260 262 263 266 268 270 272 274 276 279 282 285 287 290 292 294 296 297 300 303 305 306 309 311 314 316 317 319 320 322 323 323 324 324 324
235 235 235 235 234 234 234 234 234 233 232 230 230 230 230 230 229 229 228 228 228 229 230 231 233 234 235 236 237 238 238 238 238 238 238 238 239 240 242 243 244 245 246 248 249 249 250 251 250 251 254 255 257 260 262 264 265 266 268 270 272 274 276 279 282 284 287 289 291 293 295 297 299 301 302 305 308 311 313 315 316 318 319 320 321 322 322 323
234 234 234 234 234 234 234 234 234 233 231 230 229 229 229 230 229 228 228 228 228 228 229 230 232 233 234 235 236 237 238 238 238 238 238 238 239 240 241 242 244 246 246 247 248 249 250 251 250 251 253 255 257 259 261 263 264 266 268 269 271 273 275 277 279 282 284 287 289 291 293 294 296 298 299 301 305 307 309 311 313 315 316 318 319 320 321 321
235 234 233 233 233 233 233 233 233 233 231 230 229 229 229 229 229 228 228 228 228 228 229 230 231 232 233 234 235 236 237 238 238 238 238 238 239 240 241 242 243 245 246 247 248 249 250 251 251 251 252 255 256 258 260 262 264 266 266 268 271 273 275 276 278 280 283 285 287 289 290 292 294 295 296 299 302 305 307 308 310 312 314 316 317 318 319 320
235 234 233 232 232 232 232 232 232 232 231 230 229 229 229 229 229 228 228 228 228 228 228 229 230 231 232 233 234 235 236 237 238 238 238 238 239 240 241 242 243 244 245 247 248 249 249 251 252 252 252 254 256 257 260 262 263 264 266 268 270 272 274 275 277 279 281 283 286 287 288 290 293 293 295 298 300 303 304 306 307 309 311 314 315 316 317 318
236 234 233 231 231 231 232 231 231 231 230 229 229 228 228 228 228 228 228 227 227 227 228 229 230 231 232 233 233 235 236 237 238 238 238 238 238 239 240 241 243 244 245 246 247 248 249 251 252 252 252 254 255 257 259 260 261 264 267 268 269 270 272 274 276 278 280 282 284 285 286 289 291 292 294 297 299 301 303 304 306 307 310 311 313 314 314 315
236 234 232 231 230 230 231 231 230 230 230 229 229 228 228 228 228 228 228 228 227 227 228 228 229 230 231 232 233 234 235 236 237 238 238 238 238 239 240 241 242 243 244 245 247 248 250 251 252 253 253 254 255 256 258 259 262 265 266 267 268 269 272 273 275 277 279 281 282 283 284 287 290 291 293 296 298 300 301 303 304 306 308 309 310 311 312 313
236 234 232 230 230 229 229 230 230 229 229 229 229 228 228 227 228 228 228 227 227 227 227 228 229 230 230 231 232 233 234 235 236 237 238 238 238 239 240 241 242 243 244 245 246 248 250 251 252 253 253 253 254 255 257 259 261 263 265 266 267 269 271 273 274 276 277 279 280 281 284 286 288 290 293 296 298 299 300 302 304 305 306 307 308 310 311 311
235 234 232 230 229 229 229 229 229 229 229 229 228 228 227 227 227 227 227 227 227 226 227 228 228 229 230 231 232 233 233 234 236 237 237 238 238 239 240 241 242 243 244 245 246 248 249 250 251 252 252 253 254 255 256 258 260 262 264 265 267 269 271 273 274 275 276 277 279 280 283 285 287 289 292 295 296 297 299 301 303 304 305 306 307 308 309 310
234 233 232 229 228 228 228 228 228 228 228 228 227 227 227 227 227 227 227 227 227 226 226 227 228 229 230 231 231 232 233 234 235 236 237 238 238 239 240 241 242 243 243 244 246 247 248 249 250 252 252 253 254 254 256 258 260 261 263 265 267 269 271 272 273 274 275 277 278 280 283 285 285 289 293 294 295 296 299 301 302 302 303 305 306 307 309 310
234 233 232 230 228 228 228 228 228 227 227 227 227 226 226 226 226 226 226 226 226 226 226 227 228 229 230 230 231 232 233 233 235 236 237 237 238 239 240 241 242 243 243 244 245 246 247 249 250 251 252 253 254 255 256 257 259 261 263 265 267 269 271 272 272 273 274 276 278 280 283 284 285 289 293 293 294 296 298 300 301 302 303 304 305 307 308 309
233 232 232 230 228 227 227 228 228 227 227 227 226 226 226 226 226 226 226 226 226 226 226 227 227 228 229 230 231 232 232 233 234 235 236 237 238 239 240 241 242 243 243 244 245 246 247 248 250 251 252 253 254 255 256 258 259 261 263 265 267 269 270 271 272 273 275 277 279 281 283 283 286 290 292 293 294 296 297 299 300 301 302 303 304 306 307 308
233 232 232 231 229 228 227 228 228 227 227 226 226 226 226 226 226 226 225 225 225 225 226 226 227 228 229 230 231 231 232 233 234 235 236 237 238 238 239 240 241 242 243 244 245 246 247 248 250 251 253 254 254 255 257 258 260 262 264 266 268 269 270 271 272 273 274 277 279 281 283 283 286 289 291 292 293 294 295 297 298 299 301 302 302 303 305 305
233 232 232 231 230 228 228 228 228 227 227 226 226 226 225 225 225 225 225 225 225 225 225 225 226 228 229 230 230 231 232 233 234 234 235 237 237 238 239 240 242 243 244 245 245 246 247 248 250 252 253 254 255 256 257 259 261 263 265 267 267 268 270 272 272 273 274 277 279 281 282 283 285 287 289 289 290 291 293 294 296 297 298 299 300 301 302 303